SCP
0 0 -0 -0 0 0 0 0 0 0 0 0 0 0 0 0 0 0 0 0 0 0 -0 -0 -0 -0 -0 -0 -0 -0 -0 -0 -0 -0 -0 0 0 -0 -0 -0 -0 0 0 0 0 0 0 0 0
0 -0 -0 -0 0 0 0 0 0 0 0 0 0 0 0 -0 0 0 0 0 0 0 0 0 -0 -0 -0 -0 -0 -0 -0 -0 -0 -0 -0 -0 -0 -0 0 0 0 0 0 0 0 0 0 0 0
-0 -0 -0 0 0 0 0 0 0 0 0 0 0 0 0 -0 0 0 0 0 0 0 0 0 -0 -0 -0 -0 -0 -0 -0 -0 -0 -0 -0 -0 -0 0 -0 0 0 0 0 0 0 0 0 0 0
0 0 0 0 0 0 0 0 0 -0 -0 0 0 0 0 0 0 0 0 0 0 0 0 0 -0 -0 -0 -0 -0 -0 -0 -0 -0 -0 -0 -0 -0 -0 0 0 0 0 0 0 0 0 0 0 0
0 0 0 0 0 0 0 0 0 0 0 0 0 0 0 0 0 0 0 0 0 0 0 0 -0 -0 -0 -0 -0 -0 -0 -0 -0 -0 -0 -0 -0 0 0 0 0 0 0 0 0 0 0 0 0
0 0 0 0 0 0 0 0 0 0 0 0 0 0 0 0 0 0 0 0 0 0 0 0 0 0 -0 -0 -0 -0 -0 -0 -0 0 0 -0 -0 0 0 0 0 0 0 0 0 0 0 0 0
0 0 0 0 0 0 0 0 0 0 0 0 0 0 0 0 -0 0 0 0 0 0 0 0 0 0 0 0 0 -0 -0 -0 -0 0 0 0 0 0 0 0 0 0 0 0 0 0 0 0 0
0 0 0 0 0 0 0 0 0 0 0 0 0 0 0 0 0 0 0 0 0 0 0 0 0 0 0 0 0 0 0 0 0 0 0 0 0 0 0 0 0 0 0 0 0 0 0 0 0
0 0 0 0 0 0 0 0 0 0 0 0 0 0 0 0 0 0 0 0 0 0 -0 -0 0 0 0 0 0 0 0 0 0 0 0 0 0 0 0 0 0 0 0 0 0 0 0 0 0
0 0 0 0 0 0 0 0 0 0 0 0 0 0 0 0 0 0 0 0 0 0 0 0 0 0 0 0 0 0 0 0 0 0 0 0 0 0 0 0 0 0 0 0 0 0 0 0 0
0 0 0 0 0 0 0 0 0 0 0 0 -0 0 0 0 0 0 0 0 0 0 0 0 0 0 0 0 0 0 0 0 0 0 0 0 0 0 0 0 0 0 0 0 0 0 0 0 0
0 0 0 0 0 0 0 0 0 0 0 0 0 0 0 0 0 0 0 0 0 0 0 0 0 0 0 0 0 0 0 0 0 0 0 0 0 0 0 0 0 0 0 0 0 0 0 0 0
0 0 0 0 0 0 0 0 0 0 0 0 0 0 0 0 0 0 0 0 0 0 0 0 0 0 0 0 0 0 0 0 0 0 0 0 0 0 0 0 0 0 0 0 0 0 0 0 0
0 0 0 0 0 0 0 0 0 0 0 0 0 0 0 0 0 0 0 0 0 0 0 0 0 0 0 0 0 0 0 0 0 0 0 0 0 0 0 0 0 0 0 0 0 0 0 0 0
0 0 0 0 0 0 0 0 0 0 0 0 0 0 0 0 0 0 0 0 0 0 0 0 0 0 0 0 0 0 0 0 0 0 0 0 0 0 0 0 0 0 0 0 0 0 0 0 0
0 0 0 0 0 0 0 0 0 0 0 0 0 0 0 0 0 0 0 0 0 0 0 0 0 0 0 0 0 0 0 0 0 0 0 0 0 0 0 0 0 0 0 0 0 0 0 0 0
0 0 0 0 0 0 0 0 0 0 0 0 0 0 0 0 0 0 0 0 0 0 0 0 0 0 0 0 0 0 0 0 0 0 0 0 0 0 0 0 0 0 0 0 0 0 0 0 0
0 0 0 0 0 0 0 0 0 0 0 0 0 0 0 0 0 0 0 0 0 0 0 0 0 0 0 0 0 0 0 0 0 0 0 0 0 0 0 0 0 0 0 0 0 0 0 0 0
0 0 0 0 0 0 0 0 0 0 0 0 0 0 0 0 0 0 0 0 0 0 0 0 0 0 0 0 0 0 0 0 0 0 0 0 0 0 0 0 0 0 0 0 0 0 0 0 0
0 0 0 0 0 0 0 0 0 0 0 0 0 0 0 0 0 0 0 0 0 0 0 0 0 0 0 0 0 0 0 0 0 0 0 0 0 0 0 0 0 0 0 0 0 0 0 0 0
0 0 0 0 0 0 0 0 0 0 0 0 0 0 0 0 0 0 0 0 0 0 0 0 0 0 0 0 0 0 0 0 0 0 0 0 0 0 0 0 0 0 0 0 0 0 0 0 0
0 0 0 0 0 0 0 0 0 0 0 0 0 0 0 0 0 0 0 0 0 0 0 0 0 0 0 0 0 0 0 0 0 0 0 0 0 0 0 0 0 0 0 0 0 0 0 0 0
0 0 0 0 0 0 0 0 0 0 0 0 0 0 0 0 0 0 0 0 0 0 0 0 0 0 0 0 0 0 0 -0 0 0 0 0 0 0 0 0 0 0 0 0 0 0 0 -0 -0
0 0 0 0 0 0 0 0 0 0 0 0 0 0 0 0 0 0 0 0 0 0 0 0 0 0 0 0 0 0 0 -0 0 0 0 0 0 0 0 0 0 0 0 0 0 0 0 0 0
0 0 0 0 0 0 0 0 0 0 0 0 0 0 0 0 0 0 0 0 0 0 0 0 0 -0 -0 -0 -0 -0 -0 -0 -0 0 0 0 0 0 0 0 0 0 0 0 0 0 0 0 0
0 0 0 0 0 0 0 0 0 0 0 0 0 0 0 0 0 0 0 0 0 0 0 0 -0 -0 -0 -0 -0 -0 0 0 0 0 0 0 0 0 0 0 0 0 0 0 0 0 0 0 0
0 0 0 0 0 0 0 0 0 0 0 0 0 0 0 0 0 0 0 0 0 0 0 -0 -0 -0 -0 0 0 0 0 0 0 0 0 0 0 0 0 0 0 0 0 0 0 0 0 0 -0
0 0 0 0 0 0 0 0 0 0 0 0 0 0 0 0 0 0 0 0 0 0 0 0 -0 0 0 0 0 0 0 0 0 0 0 0 0 0 0 0 -0 -0 -0 -0 -0 -0 -0 -0 0
0 0 0 0 0 0 0 0 0 0 0 0 0 0 0 0 0 0 0 0 0 0 0 -0 0 0 0 0 0 0 0 0 0 0 0 0 0 0 0 0 0 0 0 0 0 -0 -0 -0 -0
0 0 0 0 0 0 0 0 0 0 0 0 0 0 0 0 0 0 0 0 0 0 0 -0 0 0 0 0 0 0 0 0 0 0 0 0 0 0 0 0 0 0 0 0 0 0 0 0 0
Wind_Speed_500mb
10 8 5 2 7 10 3 2 3 3 4 1 3 5 6 4 7 6 8 2 3 15 31 35 30 29 27 25 24 25 22 17 14 10 9 7 7 5 3 2 3 8 9 8 6 6 7 5 2
10 7 3 5 9 7 8 7 4 2 1 2 4 4 4 1 1 6 5 1 2 14 24 31 32 29 28 27 26 25 21 18 14 12 10 9 8 8 5 1 6 8 9 8 8 7 7 5 4
8 8 3 9 7 7 7 7 4 4 1 3 3 2 2 2 4 5 5 0 2 11 18 28 29 29 28 26 26 25 22 19 16 14 14 14 15 11 9 11 15 14 11 10 10 10 10 8 7
9 3 10 9 2 4 6 5 5 6 1 4 4 4 2 1 1 3 4 3 2 7 14 25 30 31 29 27 28 27 25 23 19 16 17 26 13 9 10 15 18 18 13 11 12 11 9 9 7
6 6 8 7 5 6 7 6 3 4 4 2 2 2 3 4 4 2 5 7 4 5 10 18 28 32 31 31 29 28 26 25 22 19 21 24 18 12 11 17 22 22 15 10 11 12 10 8 6
6 6 9 3 6 8 8 13 3 2 7 5 4 5 5 11 3 2 2 3 4 6 9 13 22 31 33 33 31 31 30 28 25 23 24 21 30 16 14 17 16 18 12 11 11 10 9 6 5
10 8 8 6 5 8 4 16 6 3 8 4 5 5 3 14 6 6 6 4 2 3 9 14 17 25 33 34 32 31 32 30 27 26 26 26 25 27 25 14 15 14 12 13 12 11 10 6 6
6 10 6 5 4 5 5 11 3 7 3 7 5 4 6 21 23 12 12 12 10 5 7 10 15 21 28 35 36 33 30 30 29 28 31 29 29 28 27 11 11 12 14 14 11 12 10 8 8
5 9 2 6 10 4 5 11 2 14 8 5 8 9 23 27 14 8 12 15 15 13 13 16 19 22 26 31 36 37 37 34 31 30 29 32 31 30 30 14 13 16 16 19 17 15 12 11 11
8 7 13 8 7 3 9 3 17 10 15 6 12 21 19 15 14 12 14 16 18 19 19 23 25 26 28 30 34 38 39 37 35 33 33 34 31 29 24 25 17 16 19 20 19 18 14 15 14
5 8 6 5 11 8 6 10 2 6 9 5 17 33 19 12 11 10 14 19 23 26 28 30 32 33 30 30 31 33 36 38 36 36 35 35 32 31 30 28 27 19 23 24 24 21 18 19 19
1 9 8 5 2 8 7 12 12 12 4 22 15 12 10 11 7 4 3 7 12 15 19 27 33 33 34 30 30 28 30 33 34 36 35 34 32 34 33 32 29 23 25 28 29 27 25 23 24
5 4 7 18 24 21 20 20 14 33 14 10 6 5 10 13 14 12 14 17 21 25 28 24 28 30 32 29 26 23 22 25 35 37 33 34 34 35 37 35 34 28 31 35 34 32 29 28 28
4 8 20 21 32 24 9 4 3 16 7 7 5 9 10 12 16 14 11 15 20 26 27 28 30 34 32 29 21 15 13 14 17 33 35 34 34 35 37 37 35 30 34 35 31 36 30 30 30
5 9 14 15 7 6 9 1 7 19 9 15 17 16 14 16 14 18 21 24 23 23 24 22 17 32 34 30 25 19 11 6 8 14 20 23 25 29 33 30 29 31 31 31 31 32 29 30 33
6 8 8 7 2 2 9 13 14 29 16 19 16 14 13 14 15 14 17 20 21 19 17 15 3 19 30 27 26 22 17 14 16 18 21 23 27 26 27 25 24 24 30 28 31 31 33 32 34
9 6 8 15 5 5 5 11 8 40 22 22 18 16 15 13 12 13 14 16 21 24 25 20 16 19 23 25 26 20 16 13 13 13 12 17 16 14 14 10 12 17 22 26 30 33 34 37 38
11 8 9 11 1 7 1 13 10 34 28 25 23 22 22 23 26 21 19 18 21 23 27 28 29 28 28 26 20 16 11 5 3 8 11 10 6 2 4 5 7 14 20 21 23 25 33 38 41
7 9 11 7 4 2 13 11 11 17 26 24 25 28 32 35 35 31 29 27 27 25 25 29 29 34 26 21 18 12 4 6 4 5 8 7 8 11 16 17 20 23 28 35 35 33 35 36 40
4 4 10 10 7 11 9 9 6 13 11 16 26 31 35 39 41 46 48 49 50 49 46 40 37 30 25 17 20 19 14 10 6 6 7 9 15 20 24 28 25 22 24 30 33 36 36 34 33
9 12 8 14 7 2 6 9 8 9 22 24 24 28 33 38 42 44 48 53 53 55 56 53 51 45 40 34 27 22 18 22 16 16 14 13 12 10 9 11 14 17 18 18 20 25 30 32 27
9 15 11 7 5 8 3 9 5 9 8 10 20 25 29 32 37 41 45 49 52 51 49 48 47 42 41 35 30 28 30 28 33 30 29 25 21 18 16 16 17 19 20 21 22 22 23 26 30
11 9 10 6 7 4 6 3 7 12 9 11 21 26 28 29 33 38 42 46 46 43 42 41 39 34 34 29 29 28 29 32 29 26 22 23 24 25 24 23 22 23 26 27 26 23 23 26 28
16 11 11 8 5 2 13 13 7 11 11 14 28 33 34 32 33 35 37 37 37 35 32 28 26 28 27 25 26 26 27 25 18 19 17 21 22 23 24 26 28 30 31 35 37 36 36 34 29
8 12 1 6 2 10 2 5 13 12 8 32 43 50 43 39 36 35 34 31 29 27 24 22 21 23 22 21 21 22 23 22 24 24 26 27 30 33 35 36 37 38 39 41 43 44 44 43 43
11 13 10 12 7 7 2 12 10 2 11 27 59 60 51 45 40 36 32 28 24 20 20 19 18 19 18 17 19 20 21 23 23 24 28 32 35 37 39 40 42 44 46 47 48 50 53 54 52
8 8 5 13 6 5 9 10 2 5 3 25 51 60 56 51 46 39 31 24 20 18 18 17 15 15 15 15 16 18 22 23 27 29 32 35 37 41 44 46 48 48 50 52 55 57 60 61 62
8 11 7 5 3 8 8 11 10 12 18 18 32 53 62 56 49 42 34 27 23 18 17 15 12 9 10 12 15 18 20 23 26 29 32 34 37 41 45 49 53 57 63 69 73 76 77 80 78
6 6 7 8 8 10 4 11 11 18 30 36 44 67 69 63 55 46 36 28 23 22 19 14 8 4 5 9 15 20 23 26 29 30 33 36 38 42 47 51 55 59 63 68 75 82 89 96 101
4 14 14 12 11 6 5 22 5 7 31 49 55 73 73 67 58 48 40 33 30 27 20 15 10 7 10 16 20 25 30 33 36 39 43 47 51 54 60 64 70 76 81 85 88 90 88 88 90
Wind_Direction_500mb
346 3 14 49 59 67 342 293 264 316 6 156 129 131 155 158 157 203 343 199 39 173 186 185 189 188 189 187 185 182 186 198 206 204 199 194 178 216 251 308 4 357 3 355 354 7 6 2 36
11 20 52 99 83 64 281 265 236 216 252 112 118 98 58 355 261 339 21 212 96 170 187 191 190 194 196 199 202 205 209 209 209 213 223 231 243 174 152 143 321 339 349 336 336 343 341 328 303
17 15 38 92 105 153 196 240 264 311 127 67 90 65 68 35 21 9 354 229 135 170 189 199 199 199 202 205 209 212 216 222 226 234 237 239 256 244 263 291 311 315 327 325 324 329 327 320 294
8 21 59 78 103 232 205 330 252 325 30 55 65 55 308 232 28 45 41 99 158 174 187 201 205 207 210 210 211 214 220 223 228 238 248 254 253 254 273 288 290 298 305 309 313 321 323 316 294
12 56 56 80 294 275 286 355 352 320 313 19 38 338 315 325 253 153 88 96 120 183 192 203 210 214 216 220 218 222 225 229 236 240 236 262 264 239 281 289 287 285 303 303 315 322 324 317 317
60 62 61 164 277 298 303 355 3 12 349 352 37 3 1 14 3 329 59 90 113 165 209 217 216 220 224 228 225 223 228 233 238 239 238 246 288 274 309 301 284 292 307 309 318 317 316 308 299
102 78 171 177 254 315 290 352 77 6 334 16 6 349 343 43 8 299 269 264 249 243 223 223 226 226 229 233 233 230 231 235 237 238 238 247 267 284 304 306 308 298 307 316 319 316 313 306 304
76 89 119 247 215 261 343 6 68 55 307 336 359 344 332 339 332 281 260 257 248 264 255 251 242 234 234 236 237 238 236 241 241 239 242 248 256 275 287 306 340 330 319 316 311 306 297 285 287
89 62 173 228 161 242 345 11 341 325 279 318 323 344 322 314 311 300 258 258 252 249 246 242 247 246 238 238 239 239 240 240 240 242 249 252 257 270 277 269 307 341 327 321 317 307 297 274 269
80 109 219 211 206 252 319 334 324 333 327 293 318 325 314 291 280 272 267 267 263 262 269 272 259 250 248 244 239 239 241 239 240 242 248 253 261 268 270 287 296 319 330 322 310 303 296 275 270
141 188 212 273 234 281 298 309 250 307 310 347 338 321 314 278 253 266 274 279 275 267 262 252 257 258 251 250 247 243 241 242 240 242 246 255 264 259 265 279 292 309 318 326 321 304 283 271 268
321 251 233 285 285 310 309 308 293 249 250 320 329 39 51 66 88 81 356 314 299 288 278 253 248 243 250 250 249 250 250 245 236 236 237 247 256 264 269 276 281 296 307 315 316 311 294 277 264
181 271 257 276 282 278 272 265 269 285 312 138 113 50 34 28 22 5 347 329 313 304 292 273 242 235 234 244 245 251 258 257 242 237 243 249 259 264 272 278 285 293 304 310 308 303 291 283 276
335 301 291 289 280 279 232 253 281 67 55 101 77 42 29 15 10 6 350 344 324 310 297 279 251 227 216 226 232 243 266 280 264 242 247 253 261 266 272 279 284 290 300 307 305 305 289 283 282
344 337 327 271 276 234 163 186 108 49 39 55 44 40 30 26 22 18 7 354 346 331 321 308 278 220 208 207 217 223 232 233 250 240 247 259 264 268 269 275 278 282 289 302 302 303 291 292 290
32 50 349 293 111 340 151 262 129 16 20 68 51 43 39 37 27 20 17 17 18 11 1 5 356 195 188 188 199 205 206 216 231 231 235 242 245 244 258 273 274 272 294 306 304 317 313 306 299
6 236 218 314 191 145 146 251 97 5 42 63 50 49 54 61 49 41 40 41 42 42 52 54 77 128 150 164 180 183 203 214 228 247 252 247 252 259 256 236 265 291 305 298 294 301 303 309 308
198 212 246 242 317 45 312 267 29 22 51 65 68 69 63 55 51 53 60 66 67 66 69 78 87 104 120 132 153 168 166 131 218 274 285 281 278 307 292 317 280 289 279 282 284 296 297 302 309
144 183 213 248 248 35 251 260 21 40 66 76 79 79 76 72 71 73 75 77 83 87 89 87 95 94 105 120 128 141 144 58 19 33 46 6 345 323 310 311 308 301 294 288 288 293 294 298 301
167 182 250 282 269 169 278 238 80 53 63 100 109 101 97 96 91 87 85 85 82 82 83 87 89 94 92 93 94 102 107 94 67 28 338 319 308 301 295 293 285 289 292 290 293 296 296 294 301
193 207 200 227 343 294 331 278 178 65 102 110 109 113 112 105 99 95 92 87 86 84 83 82 80 80 81 80 81 83 88 94 93 76 70 62 51 37 20 357 340 328 318 320 315 308 307 307 304
218 198 187 186 118 230 62 275 214 154 127 102 129 131 124 115 108 103 98 93 88 85 83 80 77 77 79 83 90 98 95 88 77 71 67 66 64 60 47 31 18 9 2 351 344 334 326 321 322
222 120 145 132 137 39 288 337 249 133 191 180 173 155 142 131 120 112 105 100 94 89 81 74 70 71 76 75 75 75 77 77 77 70 56 50 46 38 33 28 23 15 11 8 2 359 352 338 326
144 82 58 59 92 279 229 189 228 193 193 172 184 174 159 146 135 125 116 108 98 91 86 80 79 82 81 79 76 73 76 77 71 60 42 33 22 13 8 6 1 357 352 348 346 346 342 342 339
99 100 305 350 358 229 326 173 250 190 178 180 180 179 170 160 152 143 133 121 112 106 95 88 82 80 76 68 63 55 46 35 27 20 12 5 359 357 357 354 351 348 346 342 339 336 333 330 328
179 164 157 211 210 259 353 232 261 286 295 208 183 176 173 170 166 160 150 141 132 121 112 103 91 85 79 65 54 42 32 21 15 10 3 357 353 350 346 344 344 343 341 337 333 331 328 325 321
186 183 174 99 52 31 224 281 208 115 68 149 171 180 183 179 177 173 165 155 150 141 129 115 99 85 73 58 45 30 20 10 1 354 349 345 342 340 339 337 336 334 333 331 328 325 322 318 317
157 161 86 21 196 255 270 268 233 202 202 185 180 189 189 189 186 183 179 173 169 163 153 139 119 93 64 39 22 11 356 344 334 332 327 326 324 323 323 322 322 322 323 323 321 319 317 313 311
140 187 68 129 145 180 261 259 214 204 187 186 190 195 196 195 194 192 186 185 185 180 171 163 153 102 32 358 344 334 327 322 320 319 316 314 316 317 317 317 316 316 314 313 311 309 310 309 308
184 192 167 186 218 232 164 260 79 229 181 184 195 202 202 203 200 198 195 198 196 191 188 189 208 258 301 316 324 321 317 315 315 318 319 320 320 320 319 318 317 316 315 313 311 308 305 300 297
Wind_Speed_850mb
10 8 5 2 7 10 3 2 3 3 4 1 3 5 6 4 7 6 8 2 3 15 31 35 30 29 27 25 24 25 22 17 14 10 9 7 7 5 3 2 3 8 9 8 6 6 7 5 2
10 7 3 5 9 7 8 7 4 2 1 2 4 4 4 1 1 6 5 1 2 14 24 31 32 29 28 27 26 25 21 18 14 12 10 9 8 8 5 1 6 8 9 8 8 7 7 5 4
8 8 3 9 7 7 7 7 4 4 1 3 3 2 2 2 4 5 5 0 2 11 18 28 29 29 28 26 26 25 22 19 16 14 14 14 15 11 9 11 15 14 11 10 10 10 10 8 7
9 3 10 9 2 4 6 5 5 6 1 4 4 4 2 1 1 3 4 3 2 7 14 25 30 31 29 27 28 27 25 23 19 16 17 26 13 9 10 15 18 18 13 11 12 11 9 9 7
6 6 8 7 5 6 7 6 3 4 4 2 2 2 3 4 4 2 5 7 4 5 10 18 28 32 31 31 29 28 26 25 22 19 21 24 18 12 11 17 22 22 15 10 11 12 10 8 6
6 6 9 3 6 8 8 13 3 2 7 5 4 5 5 11 3 2 2 3 4 6 9 13 22 31 33 33 31 31 30 28 25 23 24 21 30 16 14 17 16 18 12 11 11 10 9 6 5
10 8 8 6 5 8 4 16 6 3 8 4 5 5 3 14 6 6 6 4 2 3 9 14 17 25 33 34 32 31 32 30 27 26 26 26 25 27 25 14 15 14 12 13 12 11 10 6 6
6 10 6 5 4 5 5 11 3 7 3 7 5 4 6 21 23 12 12 12 10 5 7 10 15 21 28 35 36 33 30 30 29 28 31 29 29 28 27 11 11 12 14 14 11 12 10 8 8
5 9 2 6 10 4 5 11 2 14 8 5 8 9 23 27 14 8 12 15 15 13 13 16 19 22 26 31 36 37 37 34 31 30 29 32 31 30 30 14 13 16 16 19 17 15 12 11 11
8 7 13 8 7 3 9 3 17 10 15 6 12 21 19 15 14 12 14 16 18 19 19 23 25 26 28 30 34 38 39 37 35 33 33 34 31 29 24 25 17 16 19 20 19 18 14 15 14
5 8 6 5 11 8 6 10 2 6 9 5 17 33 19 12 11 10 14 19 23 26 28 30 32 33 30 30 31 33 36 38 36 36 35 35 32 31 30 28 27 19 23 24 24 21 18 19 19
1 9 8 5 2 8 7 12 12 12 4 22 15 12 10 11 7 4 3 7 12 15 19 27 33 33 34 30 30 28 30 33 34 36 35 34 32 34 33 32 29 23 25 28 29 27 25 23 24
5 4 7 18 24 21 20 20 14 33 14 10 6 5 10 13 14 12 14 17 21 25 28 24 28 30 32 29 26 23 22 25 35 37 33 34 34 35 37 35 34 28 31 35 34 32 29 28 28
4 8 20 21 32 24 9 4 3 16 7 7 5 9 10 12 16 14 11 15 20 26 27 28 30 34 32 29 21 15 13 14 17 33 35 34 34 35 37 37 35 30 34 35 31 36 30 30 30
5 9 14 15 7 6 9 1 7 19 9 15 17 16 14 16 14 18 21 24 23 23 24 22 17 32 34 30 25 19 11 6 8 14 20 23 25 29 33 30 29 31 31 31 31 32 29 30 33
6 8 8 7 2 2 9 13 14 29 16 19 16 14 13 14 15 14 17 20 21 19 17 15 3 19 30 27 26 22 17 14 16 18 21 23 27 26 27 25 24 24 30 28 31 31 33 32 34
9 6 8 15 5 5 5 11 8 40 22 22 18 16 15 13 12 13 14 16 21 24 25 20 16 19 23 25 26 20 16 13 13 13 12 17 16 14 14 10 12 17 22 26 30 33 34 37 38
11 8 9 11 1 7 1 13 10 34 28 25 23 22 22 23 26 21 19 18 21 23 27 28 29 28 28 26 20 16 11 5 3 8 11 10 6 2 4 5 7 14 20 21 23 25 33 38 41
7 9 11 7 4 2 13 11 11 17 26 24 25 28 32 35 35 31 29 27 27 25 25 29 29 34 26 21 18 12 4 6 4 5 8 7 8 11 16 17 20 23 28 35 35 33 35 36 40
4 4 10 10 7 11 9 9 6 13 11 16 26 31 35 39 41 46 48 49 50 49 46 40 37 30 25 17 20 19 14 10 6 6 7 9 15 20 24 28 25 22 24 30 33 36 36 34 33
9 12 8 14 7 2 6 9 8 9 22 24 24 28 33 38 42 44 48 53 53 55 56 53 51 45 40 34 27 22 18 22 16 16 14 13 12 10 9 11 14 17 18 18 20 25 30 32 27
9 15 11 7 5 8 3 9 5 9 8 10 20 25 29 32 37 41 45 49 52 51 49 48 47 42 41 35 30 28 30 28 33 30 29 25 21 18 16 16 17 19 20 21 22 22 23 26 30
11 9 10 6 7 4 6 3 7 12 9 11 21 26 28 29 33 38 42 46 46 43 42 41 39 34 34 29 29 28 29 32 29 26 22 23 24 25 24 23 22 23 26 27 26 23 23 26 28
16 11 11 8 5 2 13 13 7 11 11 14 28 33 34 32 33 35 37 37 37 35 32 28 26 28 27 25 26 26 27 25 18 19 17 21 22 23 24 26 28 30 31 35 37 36 36 34 29
8 12 1 6 2 10 2 5 13 12 8 32 43 50 43 39 36 35 34 31 29 27 24 22 21 23 22 21 21 22 23 22 24 24 26 27 30 33 35 36 37 38 39 41 43 44 44 43 43
11 13 10 12 7 7 2 12 10 2 11 27 59 60 51 45 40 36 32 28 24 20 20 19 18 19 18 17 19 20 21 23 23 24 28 32 35 37 39 40 42 44 46 47 48 50 53 54 52
8 8 5 13 6 5 9 10 2 5 3 25 51 60 56 51 46 39 31 24 20 18 18 17 15 15 15 15 16 18 22 23 27 29 32 35 37 41 44 46 48 48 50 52 55 57 60 61 62
8 11 7 5 3 8 8 11 10 12 18 18 32 53 62 56 49 42 34 27 23 18 17 15 12 9 10 12 15 18 20 23 26 29 32 34 37 41 45 49 53 57 63 69 73 76 77 80 78
6 6 7 8 8 10 4 11 11 18 30 36 44 67 69 63 55 46 36 28 23 22 19 14 8 4 5 9 15 20 23 26 29 30 33 36 38 42 47 51 55 59 63 68 75 82 89 96 101
4 14 14 12 11 6 5 22 5 7 31 49 55 73 73 67 58 48 40 33 30 27 20 15 10 7 10 16 20 25 30 33 36 39 43 47 51 54 60 64 70 76 81 85 88 90 88 88 90
Wind_Direction_850mb
346 3 14 49 59 67 342 293 264 316 6 156 129 131 155 158 157 203 343 199 39 173 186 185 189 188 189 187 185 182 186 198 206 204 199 194 178 216 251 308 4 357 3 355 354 7 6 2 36
11 20 52 99 83 64 281 265 236 216 252 112 118 98 58 355 261 339 21 212 96 170 187 191 190 194 196 199 202 205 209 209 209 213 223 231 243 174 152 143 321 339 349 336 336 343 341 328 303
17 15 38 92 105 153 196 240 264 311 127 67 90 65 68 35 21 9 354 229 135 170 189 199 199 199 202 205 209 212 216 222 226 234 237 239 256 244 263 291 311 315 327 325 324 329 327 320 294
8 21 59 78 103 232 205 330 252 325 30 55 65 55 308 232 28 45 41 99 158 174 187 201 205 207 210 210 211 214 220 223 228 238 248 254 253 254 273 288 290 298 305 309 313 321 323 316 294
12 56 56 80 294 275 286 355 352 320 313 19 38 338 315 325 253 153 88 96 120 183 192 203 210 214 216 220 218 222 225 229 236 240 236 262 264 239 281 289 287 285 303 303 315 322 324 317 317
60 62 61 164 277 298 303 355 3 12 349 352 37 3 1 14 3 329 59 90 113 165 209 217 216 220 224 228 225 223 228 233 238 239 238 246 288 274 309 301 284 292 307 309 318 317 316 308 299
102 78 171 177 254 315 290 352 77 6 334 16 6 349 343 43 8 299 269 264 249 243 223 223 226 226 229 233 233 230 231 235 237 238 238 247 267 284 304 306 308 298 307 316 319 316 313 306 304
76 89 119 247 215 261 343 6 68 55 307 336 359 344 332 339 332 281 260 257 248 264 255 251 242 234 234 236 237 238 236 241 241 239 242 248 256 275 287 306 340 330 319 316 311 306 297 285 287
89 62 173 228 161 242 345 11 341 325 279 318 323 344 322 314 311 300 258 258 252 249 246 242 247 246 238 238 239 239 240 240 240 242 249 252 257 270 277 269 307 341 327 321 317 307 297 274 269
80 109 219 211 206 252 319 334 324 333 327 293 318 325 314 291 280 272 267 267 263 262 269 272 259 250 248 244 239 239 241 239 240 242 248 253 261 268 270 287 296 319 330 322 310 303 296 275 270
141 188 212 273 234 281 298 309 250 307 310 347 338 321 314 278 253 266 274 279 275 267 262 252 257 258 251 250 247 243 241 242 240 242 246 255 264 259 265 279 292 309 318 326 321 304 283 271 268
321 251 233 285 285 310 309 308 293 249 250 320 329 39 51 66 88 81 356 314 299 288 278 253 248 243 250 250 249 250 250 245 236 236 237 247 256 264 269 276 281 296 307 315 316 311 294 277 264
181 271 257 276 282 278 272 265 269 285 312 138 113 50 34 28 22 5 347 329 313 304 292 273 242 235 234 244 245 251 258 257 242 237 243 249 259 264 272 278 285 293 304 310 308 303 291 283 276
335 301 291 289 280 279 232 253 281 67 55 101 77 42 29 15 10 6 350 344 324 310 297 279 251 227 216 226 232 243 266 280 264 242 247 253 261 266 272 279 284 290 300 307 305 305 289 283 282
344 337 327 271 276 234 163 186 108 49 39 55 44 40 30 26 22 18 7 354 346 331 321 308 278 220 208 207 217 223 232 233 250 240 247 259 264 268 269 275 278 282 289 302 302 303 291 292 290
32 50 349 293 111 340 151 262 129 16 20 68 51 43 39 37 27 20 17 17 18 11 1 5 356 195 188 188 199 205 206 216 231 231 235 242 245 244 258 273 274 272 294 306 304 317 313 306 299
6 236 218 314 191 145 146 251 97 5 42 63 50 49 54 61 49 41 40 41 42 42 52 54 77 128 150 164 180 183 203 214 228 247 252 247 252 259 256 236 265 291 305 298 294 301 303 309 308
198 212 246 242 317 45 312 267 29 22 51 65 68 69 63 55 51 53 60 66 67 66 69 78 87 104 120 132 153 168 166 131 218 274 285 281 278 307 292 317 280 289 279 282 284 296 297 302 309
144 183 213 248 248 35 251 260 21 40 66 76 79 79 76 72 71 73 75 77 83 87 89 87 95 94 105 120 128 141 144 58 19 33 46 6 345 323 310 311 308 301 294 288 288 293 294 298 301
167 182 250 282 269 169 278 238 80 53 63 100 109 101 97 96 91 87 85 85 82 82 83 87 89 94 92 93 94 102 107 94 67 28 338 319 308 301 295 293 285 289 292 290 293 296 296 294 301
193 207 200 227 343 294 331 278 178 65 102 110 109 113 112 105 99 95 92 87 86 84 83 82 80 80 81 80 81 83 88 94 93 76 70 62 51 37 20 357 340 328 318 320 315 308 307 307 304
218 198 187 186 118 230 62 275 214 154 127 102 129 131 124 115 108 103 98 93 88 85 83 80 77 77 79 83 90 98 95 88 77 71 67 66 64 60 47 31 18 9 2 351 344 334 326 321 322
222 120 145 132 137 39 288 337 249 133 191 180 173 155 142 131 120 112 105 100 94 89 81 74 70 71 76 75 75 75 77 77 77 70 56 50 46 38 33 28 23 15 11 8 2 359 352 338 326
144 82 58 59 92 279 229 189 228 193 193 172 184 174 159 146 135 125 116 108 98 91 86 80 79 82 81 79 76 73 76 77 71 60 42 33 22 13 8 6 1 357 352 348 346 346 342 342 339
99 100 305 350 358 229 326 173 250 190 178 180 180 179 170 160 152 143 133 121 112 106 95 88 82 80 76 68 63 55 46 35 27 20 12 5 359 357 357 354 351 348 346 342 339 336 333 330 328
179 164 157 211 210 259 353 232 261 286 295 208 183 176 173 170 166 160 150 141 132 121 112 103 91 85 79 65 54 42 32 21 15 10 3 357 353 350 346 344 344 343 341 337 333 331 328 325 321
186 183 174 99 52 31 224 281 208 115 68 149 171 180 183 179 177 173 165 155 150 141 129 115 99 85 73 58 45 30 20 10 1 354 349 345 342 340 339 337 336 334 333 331 328 325 322 318 317
157 161 86 21 196 255 270 268 233 202 202 185 180 189 189 189 186 183 179 173 169 163 153 139 119 93 64 39 22 11 356 344 334 332 327 326 324 323 323 322 322 322 323 323 321 319 317 313 311
140 187 68 129 145 180 261 259 214 204 187 186 190 195 196 195 194 192 186 185 185 180 171 163 153 102 32 358 344 334 327 322 320 319 316 314 316 317 317 317 316 316 314 313 311 309 310 309 308
184 192 167 186 218 232 164 260 79 229 181 184 195 202 202 203 200 198 195 198 196 191 188 189 208 258 301 316 324 321 317 315 315 318 319 320 320 320 319 318 317 316 315 313 311 308 305 300 297